• In Czech Republic
  • List of Countries
  • For 7 days
  • Water Temperature
  • Satellite Maps
  • Weather Map
  • Weather Widgets
  • user-avatar
    Login

    Hourly Weather Cuilapa

    Today, 22 October, Monday

    Time Temperature Precipitation Wind Pressure Humidity
    00:00 +19°C° 0 mm 2 mps 686 mmHg 91%
    01:00 +19°C° 0 mm 2 mps 685 mmHg 90%
    02:00 +19°C° 0 mm 2 mps 685 mmHg 90%
    03:00 +19°C° 0 mm 2 mps 685 mmHg 89%
    04:00 +18°C° 0 mm 2 mps 685 mmHg 88%
    05:00 +18°C° 0 mm 2 mps 685 mmHg 87%
    06:00 +17°C° 0 mm 2 mps 685 mmHg 86%
    07:00 +20°C° 0 mm 2 mps 686 mmHg 79%
    08:00 +23°C° 0 mm 2 mps 687 mmHg 71%
    09:00 +25°C° 0 mm 2 mps 688 mmHg 64%
    10:00 +27°C° 0 mm 2 mps 688 mmHg 62%
    11:00 +28°C° 0 mm 2 mps 688 mmHg 59%
    12:00 +29°C° 0 mm 2 mps 688 mmHg 56%
    13:00 +29°C° 0 mm 2 mps 687 mmHg 59%
    14:00 +28°C° 0 mm 2 mps 686 mmHg 61%
    15:00 +28°C° 0 mm 2 mps 686 mmHg 63%
    16:00 +26°C° 0 mm 2 mps 685 mmHg 72%
    17:00 +24°C° 0 mm 1 mps 685 mmHg 80%
    18:00 +22°C° 0 mm 1 mps 685 mmHg 88%
    19:00 +22°C° 0 mm 1 mps 686 mmHg 89%
    20:00 +21°C° 0 mm 1 mps 686 mmHg 89%
    21:00 +21°C° 0 mm 1 mps 687 mmHg 89%
    22:00 +20°C° 0 mm 1 mps 686 mmHg 89%
    23:00 +20°C° 0 mm 1 mps 686 mmHg 88%

    Tomorrow, 23 October, Tuesday

    Time Temperature Precipitation Wind Pressure Humidity
    00:00 +19°C° 0 mm 2 mps 686 mmHg 87%
    01:00 +19°C° 0 mm 2 mps 686 mmHg 87%
    02:00 +19°C° 0 mm 2 mps 686 mmHg 86%
    03:00 +19°C° 0 mm 2 mps 685 mmHg 86%
    04:00 +19°C° 0 mm 2 mps 685 mmHg 86%
    05:00 +19°C° 0 mm 2 mps 686 mmHg 86%
    06:00 +18°C° 0 mm 2 mps 686 mmHg 86%
    07:00 +21°C° 0 mm 2 mps 686 mmHg 81%
    08:00 +24°C° 0 mm 2 mps 687 mmHg 75%
    09:00 +26°C° 0 mm 2 mps 688 mmHg 70%
    10:00 +27°C° 0 mm 2 mps 688 mmHg 66%
    11:00 +28°C° 0 mm 2 mps 687 mmHg 63%
    12:00 +29°C° 0 mm 3 mps 687 mmHg 59%
    13:00 +29°C° 0 mm 2 mps 686 mmHg 61%
    14:00 +29°C° 0 mm 2 mps 686 mmHg 62%
    15:00 +28°C° 0 mm 2 mps 685 mmHg 64%
    16:00 +26°C° 0 mm 1 mps 685 mmHg 72%
    17:00 +24°C° 0 mm 1 mps 685 mmHg 79%
    18:00 +23°C° 0 mm 1 mps 685 mmHg 87%
    19:00 +22°C° 0 mm 1 mps 685 mmHg 88%
    20:00 +21°C° 0 mm 1 mps 686 mmHg 88%
    21:00 +21°C° 0 mm 1 mps 686 mmHg 89%
    22:00 +21°C° 0 mm 1 mps 686 mmHg 88%
    23:00 +19°C° 0 mm 2 mps 686 mmHg 87%

    Day after tomorrow, 24 October, Wednesday

    Time Temperature Precipitation Wind Pressure Humidity
    00:00 +19°C° 0 mm 2 mps 686 mmHg 86%
    01:00 +19°C° 0 mm 2 mps 686 mmHg 86%
    02:00 +19°C° 0 mm 2 mps 685 mmHg 86%
    03:00 +18°C° 0 mm 2 mps 685 mmHg 86%
    04:00 +18°C° 0 mm 2 mps 685 mmHg 85%
    05:00 +18°C° 0 mm 2 mps 685 mmHg 85%
    06:00 +18°C° 0 mm 2 mps 685 mmHg 84%
    07:00 +20°C° 0 mm 2 mps 686 mmHg 77%
    08:00 +23°C° 0 mm 2 mps 687 mmHg 70%
    09:00 +25°C° 0 mm 2 mps 688 mmHg 63%
    10:00 +27°C° 0 mm 2 mps 687 mmHg 59%
    11:00 +28°C° 0 mm 2 mps 687 mmHg 55%
    12:00 +29°C° 0 mm 2 mps 687 mmHg 51%
    13:00 +29°C° 0 mm 2 mps 686 mmHg 54%
    14:00 +29°C° 0 mm 2 mps 686 mmHg 56%
    15:00 +28°C° 0 mm 2 mps 685 mmHg 59%
    16:00 +26°C° 0 mm 1 mps 685 mmHg 68%
    17:00 +24°C° 0 mm 1 mps 684 mmHg 77%
    18:00 +20°C° 0 mm 0 mps 684 mmHg 86%
    19:00 +20°C° 0 mm 0 mps 685 mmHg 87%
    20:00 +21°C° 0 mm 1 mps 685 mmHg 87%
    21:00 +21°C° 0 mm 1 mps 686 mmHg 87%
    22:00 +21°C° 0 mm 1 mps 686 mmHg 86%
    23:00 +20°C° 0 mm 1 mps 685 mmHg 85%

    25 October, Thursday

    Time Temperature Precipitation Wind Pressure Humidity
    00:00 +20°C° 0 mm 1 mps 685 mmHg 84%
    01:00 +20°C° 0 mm 1 mps 685 mmHg 84%
    02:00 +20°C° 0 mm 1 mps 685 mmHg 83%
    03:00 +20°C° 0 mm 1 mps 684 mmHg 83%
    04:00 +19°C° 0 mm 1 mps 685 mmHg 83%
    05:00 +18°C° 0 mm 2 mps 685 mmHg 82%
    06:00 +18°C° 0 mm 2 mps 685 mmHg 82%
    07:00 +21°C° 0 mm 1 mps 686 mmHg 77%
    08:00 +24°C° 0 mm 1 mps 686 mmHg 71%
    09:00 +26°C° 0 mm 1 mps 687 mmHg 66%
    10:00 +27°C° 0 mm 1 mps 687 mmHg 63%
    11:00 +29°C° 0 mm 1 mps 686 mmHg 59%
    12:00 +30°C° 0 mm 1 mps 686 mmHg 56%
    13:00 +29°C° 0 mm 1 mps 685 mmHg 58%
    14:00 +29°C° 0 mm 2 mps 685 mmHg 61%
    15:00 +29°C° 0 mm 2 mps 684 mmHg 63%
    16:00 +27°C° 0 mm 1 mps 684 mmHg 72%
    17:00 +25°C° 0 mm 1 mps 684 mmHg 81%
    18:00 +20°C° 0 mm 0 mps 684 mmHg 90%
    19:00 +22°C° 0 mm 1 mps 685 mmHg 90%
    20:00 +22°C° 0 mm 1 mps 685 mmHg 90%
    21:00 +21°C° 0 mm 1 mps 686 mmHg 90%
    22:00 +21°C° 0 mm 1 mps 685 mmHg 89%
    23:00 +21°C° 0 mm 1 mps 685 mmHg 88%

    26 October, Friday

    Time Temperature Precipitation Wind Pressure Humidity
    00:00 +20°C° 0 mm 1 mps 685 mmHg 87%
    01:00 +19°C° 0 mm 2 mps 685 mmHg 86%
    02:00 +19°C° 0 mm 2 mps 684 mmHg 85%
    03:00 +19°C° 0 mm 2 mps 684 mmHg 84%
    04:00 +19°C° 0 mm 2 mps 684 mmHg 85%
    05:00 +19°C° 0 mm 2 mps 685 mmHg 85%
    06:00 +19°C° 0 mm 2 mps 685 mmHg 85%
    07:00 +21°C° 0 mm 2 mps 686 mmHg 79%
    08:00 +24°C° 0 mm 2 mps 686 mmHg 73%
    09:00 +26°C° 0 mm 1 mps 687 mmHg 66%
    10:00 +27°C° 0 mm 2 mps 687 mmHg 62%
    11:00 +28°C° 0 mm 2 mps 686 mmHg 59%
    12:00 +30°C° 0 mm 2 mps 686 mmHg 55%
    13:00 +29°C° 0 mm 2 mps 686 mmHg 57%
    14:00 +29°C° 0 mm 2 mps 685 mmHg 59%
    15:00 +29°C° 0 mm 2 mps 684 mmHg 61%
    16:00 +27°C° 0 mm 2 mps 685 mmHg 69%
    17:00 +25°C° 0 mm 1 mps 685 mmHg 77%
    18:00 +23°C° 0 mm 1 mps 685 mmHg 85%
    19:00 +22°C° 0 mm 1 mps 685 mmHg 85%
    20:00 +22°C° 0 mm 1 mps 686 mmHg 85%
    21:00 +20°C° 0 mm 2 mps 686 mmHg 85%
    22:00 +20°C° 0 mm 2 mps 686 mmHg 85%
    23:00 +20°C° 0 mm 2 mps 686 mmHg 85%

    27 October, Saturday

    Time Temperature Precipitation Wind Pressure Humidity
    00:00 +19°C° 0 mm 2 mps 685 mmHg 84%
    01:00 +19°C° 0 mm 2 mps 685 mmHg 84%
    02:00 +19°C° 0 mm 2 mps 685 mmHg 84%
    03:00 +19°C° 0 mm 2 mps 685 mmHg 84%
    04:00 +19°C° 0 mm 2 mps 685 mmHg 84%
    05:00 +19°C° 0 mm 2 mps 685 mmHg 84%
    06:00 +19°C° 0 mm 2 mps 685 mmHg 84%
    07:00 +21°C° 0 mm 2 mps 686 mmHg 78%
    08:00 +24°C° 0 mm 2 mps 687 mmHg 73%
    09:00 +26°C° 0 mm 2 mps 688 mmHg 68%
    10:00 +27°C° 0 mm 2 mps 687 mmHg 64%
    11:00 +28°C° 0 mm 3 mps 687 mmHg 60%
    12:00 +29°C° 0 mm 3 mps 687 mmHg 55%
    13:00 +29°C° 0 mm 3 mps 686 mmHg 57%
    14:00 +29°C° 0 mm 2 mps 686 mmHg 59%
    15:00 +28°C° 0 mm 2 mps 685 mmHg 60%
    16:00 +26°C° 0 mm 2 mps 685 mmHg 68%
    17:00 +24°C° 0 mm 1 mps 685 mmHg 76%
    18:00 +22°C° 0 mm 1 mps 685 mmHg 84%
    19:00 +22°C° 0 mm 1 mps 686 mmHg 85%
    20:00 +20°C° 0 mm 2 mps 686 mmHg 85%
    21:00 +20°C° 0 mm 2 mps 687 mmHg 85%
    22:00 +20°C° 0 mm 2 mps 687 mmHg 85%
    23:00 +20°C° 0 mm 2 mps 687 mmHg 85%
    Show more